Location: Artiguedieu
(43.5000°N, 0.5454°E)
Time: 21:11:16
(UTC+00:00)

Vanguard 1 - Pass Details

Date: 01 August 2021
Orbit: 652 x 3831 km, 34.3° (Epoch: 19 September)

Event Time Altitude Azimuth Distance (km) Brightness Sun altitude
Rises 13:08:25 0° 259° (W) 3,420 13.1 61.0°
Reaches altitude 10° 13:10:36 10° 251° (WSW) 2,691 12.8 60.8°
Maximum altitude 13:16:38 42° 182° (S) 1,811 12.8 60.2°
Drops below altitude 10° 13:26:59 10° 117° (ESE) 4,593 13.5 59.0°
Sets 13:31:58 0° 112° (ESE) 6,145 14.0 58.4°
